Location: Bo?a Wola
(50.4192°N, 19.7966°E)
Time: 20:52:38
(UTC+00:00)

Cosmos 1455 Rocket - Pass Details

Date: 23 September 2024
Orbit: 601 x 623 km, 82.5° (Epoch: 13 October)

Event Time Altitude Azimuth Distance (km) Brightness Sun altitude
Exits shadow 01:39:01 10° 328° (NNW) 1,971 5.7 -26.2°
Drops below altitude 10° 01:39:02 10° 329° (NNW) 1,973 5.7 -26.2°
Sets 01:42:24 0° 356° (N) 2,889 6.9 -25.8°
